Regional Weather Roundup
Issued by NWS

Home | Current Version | Previous Version | Graphics & Text | Print | Product List | Glossary On
Versions: 1 2 3 4 5 6 7 8 9 10 11 12 13 14 15 16 17 18 19 20 21 22 23 24 25 26 27 28 29 30 31 32 33 34 35 36 37 38 39 40 41 42 43 44 45 46 47 48 49 50
000
ASUS45 KCYS 202010
RWRWY

WYOMING REGIONAL WEATHER ROUNDUP
NATIONAL WEATHER SERVICE CHEYENNE WY
200 PM MDT MON APR 20 2015

NOTE:  "FAIR" INDICATES FEW OR NO CLOUDS BELOW 12,000 FEET
WITH NO SIGNIFICANT WEATHER AND/OR OBSTRUCTIONS TO VISIBILITY.

WYZ001-202100-
YELLOWSTONE NATIONAL PARK

CITY           SKY/WX    TMP DP  RH WIND       PRES   REMARKS
LK YELLOWSTONE   N/A     43  16  33 E5        30.01F
W YELLOWSTONE  NOT AVBL

$$
WYZ002>013-054>058-071-098>099-202100-
NORTHERN WYOMING

CITY           SKY/WX    TMP DP  RH WIND       PRES   REMARKS
JACKSON        FAIR      54  16  22 W10G18    29.95F
CODY           FAIR      52  21  30 W3        29.94S
GREYBULL       FAIR      59  16  18 NE14      29.91F
WORLAND        FAIR      55  19  24 N7        29.93F
SHERIDAN       FAIR      55  25  31 NW22G32   29.91F
BUFFALO        FAIR      53  21  28 N24G36    29.90F
GILLETTE       FAIR      51  19  28 N18G32    29.89F
HULETT         MOCLDY    46  18  31 NW17G28   29.89F
NEWCASTLE      FAIR      46  18  31 NW15G25   29.90F

$$
WYZ014>020-022>026-101>103-202100-
CENTRAL WYOMING

CITY           SKY/WX    TMP DP  RH WIND       PRES   REMARKS
BIG PINEY      FAIR      58  14  17 NW15G23   29.95F
PINEDALE       FAIR      54  18  24 NW10      29.95F
DUBOIS         FAIR      52   9  17 N14G23    29.94S
LANDER         FAIR      53  29  39 SE9       29.92F
RIVERTON       FAIR      52  22  30 NE9       29.95F
CASPER         PTSUNNY   51  24  34 W15G26    29.93F
DOUGLAS        CLOUDY    52  24  33 W15G25    29.92F

$$
WYZ021-027>030-104>119-202100-
SOUTHERN WYOMING

CITY           SKY/WX    TMP DP  RH WIND       PRES   REMARKS
EVANSTON       PTSUNNY   58  20  22 W10G25    29.97F
KEMMERER       MOCLDY    55  21  26 W18G24    29.97F
FORT BRIDGER   MOCLDY    59  23  25 W16G24    30.00S
ROCK SPRINGS   PTSUNNY   50  25  37 NW12      29.95F
DIXON          CLOUDY    52  31  45 W7G18     30.00F
RAWLINS        PTSUNNY   48  29  47 NW12G21   29.97F
SARATOGA       MOCLDY    39  32  75 CALM      29.99F
LARAMIE        FAIR      27  25  92 SW3       29.96S
CHEYENNE       FAIR      45  20  36 NW23G33   29.94F
TORRINGTON     PTSUNNY   51  21  30 NW21G30   29.90F
PINE BLUFFS    FAIR      50  23  34 NW23G30   29.93F

$$



USA.gov is the U.S. government's official web portal to all federal, state and local government web resources and services.